SL-14 DEB, 45298

Orbit data source: Space-Track

SL-14 DEB, 45298 is space debris in LEO originally from a launch on Thu, 15 Aug 1991 UTC launched from the Plesetsk Missile And Space Complex (PKMTR). Debris objects in space refer to the collection of defunct objects orbiting the Earth. Examples of debris include non-operational satellites, rocket bodies, and fragments generated from explosions, collisions, or faulty payload assembly.

Loading next visibility...
SL-14 DEB details
Identifier
45298, 1991-056AL
Orbit
LEO
Last TLE update12 hours ago
Origin
Flag of CISRosgidromet (CIS)
ManufacturerUnknown
MissionSpacecraft
Bus & MotorUnknown
MassUnknown
Launch date (UTC)
1991-08-15 (33 years ago)
Launch vehicleUnknown
Launch site
Plesetsk Missile And Space Complex (PKMTR)
Object type
Payload
Rocket body
Debris
Shape & HBRUnknown
Radar Cross SectionMedium (>0.1 m² and <1 m²)

Expand to show TLE details & history

TLE from 12 hours ago
0 SL-14 DEB
1 45298U 91056AL  25024.10878276  .00010912  00000-0  13000-1 0  9999
2 45298  82.5993  63.4194 0160508 348.3791  11.3668 13.61876954242539
Epoch: 2025-01-24T02:36Z
Definitive object data (Epoch: 2025-01-24T02:36:38.83Z)
Latitude0.00004°
Longitude-99.41907°
Altitude915.249 km
Speed7.452 km/s
True Right ascension04h 13m 40s
True Declination0° 00' 00"
Sunlit
Object was in daylight at TLE epoch
Visualization TLE readout
Latitude-64.25008°
Longitude95.74758°
Altitude1,076.193 km
Speed7.302 km/s
Apparent Right ascension01h 24m 16s
Apparent Declination-77° 50' 29"
Sunlit
Object is in daylight
Visualization observer readout
Local Sidereal Time15:40:12
Azimuth169.54° S
Elevation-49.572°
Doppler factor1
Orbital elements
Apogee altitude1,144.901 km
Perigee altitude907.215 km
Semi-major axis7,404.195 km
Eccentricity0.0160508
Inclination82.5993°
RAAN63.4194°
Arg. of periapsis348.3791°
True anomaly11.73657°
Mean anomaly11.3668°
Eccentric anomaly11.55095°
Mean motion3.40664 °/min
BSTAR0.013
Orbital period105.68 mins
Loading maneuver chart data...
Loading historical data...
Loading historical data...
Loading historical data...
Loading historical data...
Loading historical data...
Loading historical data...
Loading historical data...

SL-14 DEB Visibility forecast

Observer location: undefined°, undefined

Span
Click to sort rows by Start time (UTC) header in descending order
Start Az.
Max El. time (UTC)
Max El. Az.
Max El.
End time (UTC)
End Az.
11 mins2025-01-24 15:33:02.461Z327.422° NNW2025-01-24 15:38:02.461Z276.006° WNW26.157°2025-01-24 15:44:02.461Z217.533° SW
4 mins2025-01-25 01:42:02.461Z97.719° ESE2025-01-25 01:44:02.461Z75.886° E14.301°2025-01-25 01:46:02.461Z55.448° ENE
10 mins2025-01-25 03:25:02.461Z196.53° SSW2025-01-25 03:29:02.461Z254.709° W43.44°2025-01-25 03:35:02.461Z3.02° NNE
7 mins2025-01-25 12:43:02.461Z36.304° NE2025-01-25 12:46:02.461Z65.664° ENE17.471°2025-01-25 12:50:02.461Z103.325° ESE
|